THORAD DELTA 1 DEB, 8166

Orbit data source: Space-Track

THORAD DELTA 1 DEB, 8166 is space debris in SSO originally from a launch on Fri, 15 Nov 1974 UTC launched from the Air Force Western Test Range (AFWTR). Debris objects in space refer to the collection of defunct objects orbiting the Earth. Examples of debris include non-operational satellites, rocket bodies, and fragments generated from explosions, collisions, or faulty payload assembly.

Loading next visibility...
Identifier
8166, 1974-089AG
Orbit
SSO
Last TLE update
3 days ago
Origin
Manufacturer
Unknown
Mission
Spacecraft
Bus & Motor
Unknown
Mass
Unknown
Launch date (UTC)
1974-11-15 (51 years ago)
Launch vehicle
Unknown
Launch site
Air Force Western Test Range (AFWTR)
Object type
Payload
Rocket body
Debris
Shape & HBR
Unknown
Radar Cross Section
Small (<0.1 m²)

Expand to show TLE details & history

TLE from 3 days ago
0 THORAD DELTA 1 DEB
1 08166U 74089AG  25167.22736896  .00000043  00000-0  57118-3 0  9995
2 08166 101.9899 156.2286 0039072 336.5947  37.4285 12.51589055308177
Epoch: 2025-06-16T05:27Z
TLE epoch observation values (Epoch: 2025-06-16T05:27:24.678Z)
Latitude
13.95178°
Longitude
166.6252°
Altitude
1,435.427 km
Speed
7.156 km/s
True Right ascension
10h 12m 52s
True Declination
13° 52' 43"
Sunlit
Object was in daylight at epoch
Visualization orbit readout
Latitude
-56.11091°
Longitude
-169.06875°
Altitude
1,452.548 km
Speed
7.148 km/s
Apparent Right ascension
06h 51m 15s
Apparent Declination
-70° 57' 05"
Sunlit
Object is in daylight
Visualization observer readout
Local Sidereal Time
14:53:22
Azimuth
204.44° SW
Elevation
-47.196°
Doppler factor
1
Orbital elements
Apogee altitude
1,486.022 km
Perigee altitude
1,424.807 km
Semi-major axis
7,833.551 km
Eccentricity
0.00391
Inclination
101.9899°
RAAN
156.2286°
Arg. of periapsis
336.5947°
True anomaly
Unknown
Mean anomaly
37.4285°
Eccentric anomaly
Unknown
Mean motion
3.13044 °/min
Orbital period
115 mins
BSTAR
0.00057118
Loading maneuver chart data...
Loading SW <> Apogee altitude chart data...
Loading historical data...
Loading historical data...
Loading historical data...
Loading historical data...
Loading historical data...
Loading historical data...
Loading historical data...

THORAD DELTA 1 DEB Visibility forecast

Observer location: undefined°, undefined°

Span
Click to sort rows by Start time (UTC) header in descending order
Start Az.
Max El. time (UTC)
Max El. Az.
Max El.
End time (UTC)
End Az.
12 mins2025-06-19 10:46:17.132Z44.025° NE2025-06-19 10:52:17.132Z90.767° ESE22.413°2025-06-19 10:58:17.132Z140.998° SSE
15 mins2025-06-19 12:39:17.132Z12.24° NNE2025-06-19 12:46:17.132Z284.07° WNW43.598°2025-06-19 12:54:17.132Z210.128° SW
8 mins2025-06-19 14:34:17.132Z337.847° N2025-06-19 14:37:17.132Z314.4° NW16.319°2025-06-19 14:42:17.132Z277.002° WNW
12 mins2025-06-19 21:47:17.132Z111.234° ESE2025-06-19 21:52:17.132Z61.871° ENE29.941°2025-06-19 21:59:17.132Z359.494° N
14 mins2025-06-19 23:38:17.132Z184.118° SSW2025-06-19 23:45:17.132Z263.119° W38.969°2025-06-19 23:52:17.132Z331.531° NNW
|